Volver al catálogo

STARLINK-30074

ActivoComunicacionesVLEO
NORAD 57508·PAYLOAD·🇺🇸 United States

Lanzado Aug 7, 2023 desde Cape Canaveral Space Force Station

Loading…

Próximos Pases (próximas 24 horas)

TLE

ActualizadoSource: CelesTrak SupGP

Época: Sep 15, 2026, 01:55 UTC

1 57508C 23113P   26258.08034722 -.00081990  00000+0 -29696-2 0  2584
2 57508  43.0019  26.6361 0001578 260.2726 266.5846 15.27620062    13

Sigue STARLINK-30074 en tiempo real con AllMySat

Download on the App Store